Weather History for Fremont, NE

Change the Weather History Date:

Wednesday, August 1, 2012

  Actual Average Record
Temperature  
Mean Temperature 86 °F -  
Max Temperature 99 °F 86 °F 105 °F (1953)
Min Temperature 72 °F 62 °F 51 °F (1968)
Cooling Degree Days 20    
Growing Degree Days 36 (Base 50)    
Moisture  
Dew Point 65 °F    
Average Humidity 54    
Maximum Humidity 81    
Minimum Humidity 27    
Precipitation  
Precipitation 0.00 in - - ()
Sea Level Pressure  
Sea Level Pressure 29.90 in    
Wind  
Wind Speed 5 mph (SSE)    
Max Wind Speed 16 mph    
Max Gust Speed 17 mph    
Visibility 10 miles    
Events      
Averages and records for this station are not official NWS values.
T = Trace of Precipitation, MM = Missing Value Source: NWS Daily Summary

Daily Weather History Graph

Daily Weather History Graph

Search for Another Location

Airport:

Trip Planner

Search our weather history database for the weather conditions in past years. The results will help you decide how hot, cold, wet, or windy it might be!

Date:

Astronomy

Aug. 01, 2012 Rise Set
Actual Time 6:21 AM CDT 8:42 PM CDT
Civil Twilight 5:50 AM CDT 9:13 PM CDT
Nautical Twilight 5:11 AM CDT 9:52 PM CDT
Astronomical Twilight 4:28 AM CDT 10:34 PM CDT
Moon 8:12 PM CDT (8/1) 5:52 AM CDT (8/1)
Length of Visible Light 15h 23m
Length of Day
14h 21m
Full, 100% of the Moon is Illuminated
Aug 1
Full
Aug 1
Full
Aug 9
Last Quarter
Aug 17
New
Aug 24
First Quarter

Hourly Weather History & Observations

Time (CDT) Temp. Heat Index Dew Point Humidity Pressure Visibility Wind Dir Wind Speed Gust Speed Precip Events Conditions
12:15 AM 80.4 °F 83.2 °F 68.5 °F 67% 29.96 in 10.0 mi Calm Calm - N/A   Clear
12:35 AM 80.4 °F 83.2 °F 68.7 °F 67% 29.95 in 10.0 mi Calm Calm - N/A   Clear
12:55 AM 79.5 °F - 68.9 °F 70% 29.95 in 10.0 mi Calm Calm - N/A   Clear
1:15 AM 77.7 °F - 68.7 °F 74% 29.94 in 10.0 mi Calm Calm - N/A   Clear
1:35 AM 76.5 °F - 68.4 °F 76% 29.94 in 10.0 mi Calm Calm - N/A   Clear
1:55 AM 77.9 °F - 69.3 °F 75% 29.94 in 10.0 mi Calm Calm - N/A   Clear
2:15 AM 76.6 °F - 69.1 °F 77% 29.94 in 10.0 mi ESE 3.5 mph - N/A   Clear
2:35 AM 76.8 °F - 69.8 °F 79% 29.94 in 10.0 mi East 4.6 mph - N/A   Clear
2:55 AM 75.7 °F - 69.4 °F 81% 29.94 in 10.0 mi East 3.5 mph - N/A   Clear
3:15 AM 75.0 °F - 68.9 °F 81% 29.93 in 10.0 mi ESE 3.5 mph - N/A   Clear
3:35 AM 74.8 °F - 68.4 °F 80% 29.93 in 10.0 mi SE 5.8 mph - N/A   Clear
3:55 AM 75.4 °F - 67.3 °F 76% 29.93 in 10.0 mi East 5.8 mph - N/A   Clear
4:15 AM 75.4 °F - 66.6 °F 74% 29.93 in 10.0 mi East 5.8 mph - N/A   Clear
4:35 AM 75.2 °F - 66.2 °F 73% 29.93 in 10.0 mi East 3.5 mph - N/A   Clear
4:55 AM 73.2 °F - 66.2 °F 79% 29.93 in 10.0 mi ESE 4.6 mph - N/A   Clear
5:15 AM 72.7 °F - 65.5 °F 78% 29.93 in 10.0 mi ESE 4.6 mph - N/A   Clear
5:35 AM 73.4 °F - 65.1 °F 75% 29.93 in 10.0 mi ESE 4.6 mph - N/A   Clear
5:55 AM 73.9 °F - 64.4 °F 72% 29.94 in 10.0 mi SE 8.1 mph - N/A   Clear
6:15 AM 74.1 °F - 64.4 °F 72% 29.93 in 10.0 mi SSE 6.9 mph - N/A   Clear
6:35 AM 73.0 °F - 64.6 °F 75% 29.94 in 10.0 mi SSE 4.6 mph - N/A   Clear
6:55 AM 74.5 °F - 64.4 °F 71% 29.94 in 10.0 mi SE 4.6 mph - N/A   Clear
7:15 AM 75.4 °F - 64.4 °F 69% 29.94 in 10.0 mi SSE 6.9 mph - N/A   Clear
7:35 AM 75.2 °F - 64.4 °F 69% 29.95 in 10.0 mi SSE 8.1 mph - N/A   Clear
7:55 AM 76.1 °F - 64.6 °F 67% 29.96 in 10.0 mi SSE 5.8 mph - N/A   Clear
8:15 AM 77.2 °F - 64.6 °F 65% 29.96 in 10.0 mi SSE 9.2 mph - N/A   Clear
8:35 AM 77.9 °F - 64.4 °F 63% 29.96 in 10.0 mi SSE 11.5 mph - N/A   Clear
8:55 AM 78.3 °F - 64.8 °F 63% 29.97 in 10.0 mi SSW 6.9 mph - N/A   Clear
9:15 AM 78.6 °F - 65.1 °F 63% 29.97 in 10.0 mi SSW 6.9 mph - N/A   Clear
9:35 AM 79.5 °F - 64.9 °F 61% 29.97 in 10.0 mi SSE 8.1 mph - N/A   Clear
9:55 AM 82.2 °F 83.7 °F 64.2 °F 54% 29.97 in 10.0 mi South 6.9 mph - N/A   Clear
10:15 AM 83.7 °F 85.1 °F 64.2 °F 52% 29.96 in 10.0 mi South 9.2 mph - N/A   Clear
10:35 AM 84.9 °F 86.1 °F 64.0 °F 49% 29.96 in 10.0 mi South 8.1 mph - N/A   Clear
10:55 AM 86.7 °F 88.4 °F 64.9 °F 48% 29.96 in 10.0 mi SSE 9.2 mph - N/A   Clear
11:15 AM 87.1 °F 88.9 °F 65.5 °F 48% 29.95 in 10.0 mi SSW 9.2 mph - N/A   Clear
11:35 AM 87.3 °F 89.2 °F 65.7 °F 48% 29.94 in 10.0 mi SE 5.8 mph - N/A   Clear
12:15 PM 90.5 °F 93.3 °F 66.2 °F 45% 29.93 in 10.0 mi South 6.9 mph - N/A   Clear
12:35 PM 91.6 °F 93.9 °F 65.8 °F 42% 29.92 in 10.0 mi South 9.2 mph - N/A   Clear
1:15 PM 93.7 °F 96.2 °F 65.3 °F 39% 29.91 in 10.0 mi South 6.9 mph - N/A   Clear
1:35 PM 94.5 °F 96.5 °F 64.2 °F 37% 29.90 in 10.0 mi South 9.2 mph - N/A   Clear
1:55 PM 95.7 °F 97.2 °F 63.5 °F 34% 29.90 in 10.0 mi SSW 8.1 mph - N/A   Clear
2:15 PM 95.5 °F 97.4 °F 63.7 °F 35% 29.89 in 10.0 mi SSW 9.2 mph - N/A   Clear
2:35 PM 96.1 °F 97.8 °F 63.3 °F 34% 29.89 in 10.0 mi SSW 6.9 mph - N/A   Clear
2:55 PM 97.0 °F 98.8 °F 63.7 °F 33% 29.88 in 10.0 mi SSW 6.9 mph - N/A   Clear
3:15 PM 97.5 °F 99.7 °F 63.7 °F 33% 29.88 in 10.0 mi SSE 6.9 mph - N/A   Clear
3:35 PM 98.8 °F 100.8 °F 63.5 °F 31% 29.87 in 10.0 mi South 8.1 mph - N/A   Clear
3:55 PM 97.9 °F 99.3 °F 62.4 °F 31% 29.86 in 10.0 mi SSE 10.4 mph - N/A   Clear
4:15 PM 98.4 °F 99.7 °F 62.1 °F 30% 29.86 in 10.0 mi SSE 9.2 mph - N/A   Clear
4:35 PM 99.0 °F 100.5 °F 62.1 °F 30% 29.86 in 10.0 mi South 11.5 mph - N/A   Clear
5:15 PM 99.0 °F 100.5 °F 62.1 °F 30% 29.84 in 10.0 mi SSE 11.5 mph 17.3 mph N/A   Clear
5:35 PM 99.0 °F 99.5 °F 60.6 °F 28% 29.84 in 10.0 mi SSE 13.8 mph 17.3 mph N/A   Clear
5:55 PM 99.3 °F 99.6 °F 60.1 °F 27% 29.83 in 10.0 mi SE 12.7 mph - N/A   Clear
6:15 PM 98.4 °F 98.2 °F 59.0 °F 27% 29.83 in 10.0 mi SSE 11.5 mph 17.3 mph N/A   Clear
6:35 PM 97.7 °F 97.6 °F 59.5 °F 28% 29.82 in 10.0 mi SSE 11.5 mph - N/A   Clear
6:55 PM 97.3 °F 97.0 °F 59.2 °F 28% 29.82 in 10.0 mi SSE 11.5 mph - N/A   Clear
7:15 PM 96.3 °F 96.3 °F 60.1 °F 30% 29.82 in 10.0 mi SSE 9.2 mph - N/A   Clear
7:35 PM 95.4 °F 95.7 °F 61.5 °F 32% 29.81 in 10.0 mi SSE 9.2 mph - N/A   Clear
7:55 PM 93.2 °F 94.1 °F 62.2 °F 36% 29.81 in 10.0 mi SE 8.1 mph - N/A   Clear
8:15 PM 91.4 °F 92.1 °F 62.4 °F 38% 29.81 in 10.0 mi SE 6.9 mph - N/A   Clear
8:35 PM 90.3 °F 90.8 °F 62.1 °F 39% 29.82 in 10.0 mi SE 6.9 mph - N/A   Clear
8:55 PM 88.3 °F 89.2 °F 63.3 °F 43% 29.83 in 10.0 mi SE 4.6 mph - N/A   Clear
9:35 PM 85.8 °F 87.4 °F 64.4 °F 49% 29.84 in 10.0 mi ESE 4.6 mph - N/A   Clear
9:55 PM 86.0 °F 87.3 °F 64.4 °F 48% 29.84 in 10.0 mi ESE 4.6 mph - N/A   Clear
10:15 PM 85.6 °F 87.4 °F 64.9 °F 50% 29.84 in 10.0 mi East 4.6 mph - N/A   Clear
10:35 PM 84.7 °F 86.6 °F 65.3 °F 52% 29.86 in 10.0 mi ESE 3.5 mph - N/A   Clear
10:55 PM 83.3 °F 85.3 °F 65.5 °F 55% 29.86 in 10.0 mi Calm Calm - N/A   Clear
11:35 PM 78.8 °F - 67.8 °F 69% 29.90 in 10.0 mi WNW 16.1 mph - N/A   Scattered Clouds